Weather History for KSBY - January, 2013

Change the Weather History Date:

Thursday, January 3, 2013

  Actual Average Record
Temperature  
Mean Temperature 32 °F 36 °F  
Max Temperature 38 °F 45 °F 70 °F (2000)
Min Temperature 25 °F 27 °F 8 °F (1920)
Degree Days  
Heating Degree Days 33 29  
Month to date heating degree days 81 87  
Since 1 July heating degree days 1380 1711  
Cooling Degree Days 0 0  
Month to date cooling degree days 0 0  
Year to date cooling degree days 0 0  
Moisture  
Dew Point 17 °F    
Average Humidity 59    
Maximum Humidity 81    
Minimum Humidity 37    
Precipitation  
Precipitation 0.00 in 0.10 in 1.60 in (1999)
Month to date precipitation T 0.31  
Year to date precipitation T 0.31  
Snow  
Snow 0.00 in 0.10 in 4.00 in (2014)
Month to date snowfall T 0.2  
Since 1 July snowfall T 2.0  
Snow Depth 0.00 in    
Sea Level Pressure  
Sea Level Pressure 30.22 in    
Wind  
Wind Speed 3 mph (NW)    
Max Wind Speed 10 mph    
Max Gust Speed 13 mph    
Visibility 10 miles    
Events      
T = Trace of Precipitation, MM = Missing Value Source: NWS Daily Summary

Daily Weather History Graph

Daily Weather History Graph

Search for Another Location

Airport or City:

Trip Planner

Search our weather history database for the weather conditions in past years. The results will help you decide how hot, cold, wet, or windy it might be!

Date:

Astronomy

Jan. 03, 2013 Rise Set
Actual Time 7:19 AM EST 4:54 PM EST
Civil Twilight 6:49 AM EST 5:23 PM EST
Nautical Twilight 6:16 AM EST 5:56 PM EST
Astronomical Twilight 5:44 AM EST 6:28 PM EST
Moon 11:21 PM EST (1/3) 10:35 AM EST (1/3)
Length of Visible Light 10h 33m
Length of Day
9h 34m
Waning Gibbous, 65% of the Moon is Illuminated
Jan 3
Waning Gibbous
Jan 4
Last Quarter
Jan 11
New
Jan 18
First Quarter
Jan 26
Full

Hourly Weather History & Observations

Time (EST) Temp. Windchill Dew Point Humidity Pressure Visibility Wind Dir Wind Speed Gust Speed Precip Events Conditions
12:54 AM 30.9 °F 25.2 °F 16.0 °F 54% 30.22 in 10.0 mi North 5.8 mph - N/A   Clear
1:54 AM 30.9 °F - 15.1 °F 52% 30.23 in 10.0 mi Calm Calm - N/A   Clear
2:54 AM 30.0 °F 26.5 °F 17.1 °F 59% 30.25 in 10.0 mi North 3.5 mph - N/A   Clear
3:54 AM 30.9 °F 27.5 °F 15.1 °F 52% 30.23 in 10.0 mi North 3.5 mph - N/A   Clear
4:54 AM 30.0 °F 26.5 °F 15.1 °F 54% 30.22 in 10.0 mi NNW 3.5 mph - N/A   Clear
5:54 AM 28.9 °F - 15.1 °F 56% 30.22 in 10.0 mi Calm Calm - N/A   Clear
6:54 AM 28.0 °F - 16.0 °F 61% 30.24 in 10.0 mi Calm Calm - N/A   Clear
7:54 AM 28.9 °F - 17.1 °F 61% 30.26 in 10.0 mi Calm Calm - N/A   Clear
8:54 AM 30.9 °F 26.2 °F 17.1 °F 57% 30.26 in 10.0 mi NNW 4.6 mph - N/A   Partly Cloudy
9:54 AM 32.0 °F 28.7 °F 17.1 °F 54% 30.27 in 10.0 mi NW 3.5 mph - N/A   Clear
10:54 AM 33.1 °F 27.7 °F 16.0 °F 50% 30.26 in 10.0 mi NW 5.8 mph - N/A   Clear
11:54 AM 35.1 °F 29.3 °F 14.0 °F 42% 30.23 in 10.0 mi NW 6.9 mph - N/A   Clear
12:54 PM 37.0 °F 32.4 °F 14.0 °F 39% 30.20 in 10.0 mi WNW 5.8 mph - N/A   Clear
1:54 PM 37.0 °F 32.4 °F 14.0 °F 39% 30.18 in 10.0 mi WNW 5.8 mph - N/A   Clear
2:54 PM 37.0 °F 32.4 °F 16.0 °F 42% 30.18 in 10.0 mi West 5.8 mph - N/A   Clear
3:54 PM 37.0 °F - 17.1 °F 44% 30.18 in 10.0 mi Calm Calm - N/A   Clear
4:54 PM 35.1 °F 30.1 °F 18.0 °F 50% 30.20 in 10.0 mi West 5.8 mph - N/A   Clear
5:54 PM 30.9 °F 27.5 °F 19.0 °F 61% 30.20 in 10.0 mi SW 3.5 mph - N/A   Clear
6:54 PM 32.0 °F 28.7 °F 19.9 °F 61% 30.22 in 10.0 mi WSW 3.5 mph - N/A   Clear
7:54 PM 28.0 °F 22.8 °F 19.9 °F 72% 30.21 in 10.0 mi SSW 4.6 mph - N/A   Clear
8:54 PM 27.0 °F - 19.0 °F 72% 30.21 in 10.0 mi Calm Calm - N/A   Clear
9:54 PM 26.1 °F - 19.0 °F 75% 30.21 in 10.0 mi Calm Calm - N/A   Clear
10:54 PM 27.0 °F - 21.0 °F 78% 30.21 in 10.0 mi Calm Calm - N/A   Clear
11:54 PM 26.1 °F - 19.0 °F 75% 30.20 in 10.0 mi Calm Calm - N/A   Clear